sat.trackr.live / text

‹ back to catalog

QIANFAN-172

NORAD 69389 · 2026-124H

PAYLOAD ACTIVE UNKNOWN

§ Identity

Operator
Country
PRC
Launch date
2026-06-04
Launch site
TAISC
Launch vehicle
Mass (kg)
RCS (m²)

External: N2YO · Heavens-Above · Gunter

§ Orbital elements

Epoch: 2026-09-20T04:21:32.274720Z

Period
106.59 min
Inclination
89.0072°
Eccentricity
0.0001853
Mean motion
13.51029751 rev/d
Perigee alt
1,067.1 km
Apogee alt
1,069.9 km
Semi-major
7,446.6 km
B*
1.4287e-4
RAAN
352.0258°
Arg perigee
117.4962°
Mean anomaly
242.6377°
Rev number
1,488

§ Raw data

QIANFAN-1721 69389U 26124H   26263.18162355  .00000104  00000+0  14287-3 0  99992 69389  89.0072 352.0258 0001853 117.4962 242.6377 13.51029751 14881

JSON: /api/v1/satellites/69389 · /tle

For live sub-satellite position, see the globe view (requires WebGL).

§ Visibility from observer

Set your observer location to see the next 7 days of passes ≥ 10°. The values pass through the URL so the page stays shareable.

No JS? Fill the form by hand. The geolocation button needs JavaScript.